[[{"header":{"parameterUnit":"m.s-1","parameterCategory":1,"la1":30.2991,"la2":30.254,"lo1":-89.0895,"lo2":-89.0444,"dy":0.0017,"dx":0.0017,"nx":28,"ny":28,"refTime":"2025-03-13T03:00:00:Z","depth":0,"parameterNumber":2,"parameterNumberName":"U-component_of_WINDS"},"data":[0,0,0,0,0,0,0,0,0,0,0,0,0,0,0,0,0,0,0,0,0,0,0,0,0,0,0,0,0,0,0,0,0,0,0,0,0,0,0,0,0,0,0,0,0,0,0,0,0,0,0,0,0,0,0,0,0,0,-1.3152,-1.3152,0,-1.3195,-1.3195,-1.3196,-1.3221,-1.3221,-1.3221,-1.3221,-1.3263,-1.3264,-1.3265,0,0,0,0,0,0,0,0,0,0,0,0,0,-1.3089,-1.309,-1.3152,-1.3152,-1.3153,-1.3194,-1.3195,-1.3196,-1.3221,-1.3221,-1.3221,-1.3221,-1.3263,-1.3264,-1.3265,0,0,0,0,0,0,0,0,0,0,0,0,0,-1.3123,-1.3091,-1.3151,-1.317,-1.3172,-1.3194,-1.3195,-1.3196,-1.3221,-1.3221,-1.3221,-1.3221,-1.3262,-1.3264,-1.3265,-1.3271,0,0,-1.327,-1.3271,0,0,0,0,0,0,0,0,-1.3121,-1.3125,-1.3167,-1.3169,-1.3171,-1.3203,-1.3189,-1.3221,-1.3221,-1.3202,-1.3221,-1.3221,-1.3243,-1.3246,-1.3253,-1.3273,-1.3275,-1.327,-1.3271,-1.3272,-1.3272,0,0,0,0,0,0,0,-1.3118,-1.3123,-1.3168,-1.3168,-1.317,-1.3176,-1.3181,-1.3195,-1.3221,-1.3204,-1.3206,-1.3211,-1.3244,-1.3252,-1.3255,-1.3276,-1.327,-1.3271,-1.3272,-1.3273,-1.3302,-1.3302,0,0,0,0,0,0,-1.3113,-1.3121,-1.3167,-1.317,-1.3146,-1.3177,-1.3182,-1.3192,-1.3221,-1.3225,-1.3211,-1.3212,-1.3249,-1.3253,-1.3256,-1.3265,-1.3272,-1.3273,-1.3274,-1.3302,-1.3302,-1.3302,0,0,0,0,0,0,-1.3112,-1.3117,-1.3165,-1.3146,-1.3153,-1.3178,-1.3189,-1.3193,-1.3201,-1.3226,-1.3231,-1.3214,-1.325,-1.3254,-1.3267,-1.3267,-1.3274,-1.3275,-1.3302,-1.3302,-1.3302,-1.3282,0,0,0,0,0,0,-1.311,-1.3117,-1.312,-1.3146,-1.3154,-1.3176,-1.3189,-1.3194,-1.3204,-1.3206,-1.323,-1.3235,-1.325,-1.3265,-1.3269,-1.3269,-1.3276,-1.3303,-1.3302,-1.3302,-1.3283,-1.3281,-1.328,0,0,0,0,0,-1.3108,-1.3112,-1.312,-1.3125,-1.3158,-1.3176,-1.3181,-1.3199,-1.3204,-1.3207,-1.3223,-1.3234,-1.3266,-1.3266,-1.3271,-1.3271,-1.3303,-1.3302,-1.3302,-1.3284,-1.3282,-1.328,0,0,0,0,0,0,-1.3084,-1.3116,-1.3125,-1.3138,-1.3154,-1.3181,-1.3185,-1.3196,-1.3211,-1.3212,-1.3234,-1.3239,-1.325,-1.3262,-1.3262,-1.3278,-1.3286,-1.3286,-1.327,-1.3268,-1.3267,-1.3264,-1.3278,0,0,0,0,0,-1.3081,-1.3094,-1.312,-1.3129,-1.3137,-1.3159,-1.3168,-1.3181,-1.3199,-1.3205,-1.3222,-1.3239,-1.3252,-1.3261,-1.3275,-1.3285,-1.329,-1.3287,-1.3286,-1.3284,-1.3284,-1.329,-1.3289,-1.3301,-1.3301,-1.3301,0,0,-1.3073,-1.3092,-1.3099,-1.3125,-1.3139,-1.3151,-1.3165,-1.3178,-1.3187,-1.3207,-1.3221,-1.3234,-1.3253,-1.3265,-1.3271,-1.3275,-1.3282,-1.3284,-1.3283,-1.3284,-1.329,-1.3289,-1.3288,-1.3301,-1.3301,-1.3301,0,0,-1.3066,-1.3081,-1.309,-1.3105,-1.3126,-1.3141,-1.3143,-1.3168,-1.3178,-1.3192,-1.3208,-1.3219,-1.3242,-1.3255,-1.3265,-1.3262,-1.3273,-1.3266,-1.3258,-1.3263,-1.3262,-1.3262,-1.326,-1.326,-1.3267,-1.3266,-1.3266,0,-1.3053,-1.3073,-1.3093,-1.3105,-1.3116,-1.3136,-1.3144,-1.3157,-1.3182,-1.3189,-1.3193,-1.3223,-1.3238,-1.3252,-1.3252,-1.3259,-1.3262,-1.3264,-1.3261,-1.3261,-1.326,-1.3259,-1.3259,-1.3266,-1.3266,-1.3266,-1.3266,0,-1.3057,-1.307,-1.3075,-1.3099,-1.311,-1.3121,-1.3142,-1.315,-1.3162,-1.3176,-1.319,-1.3208,-1.3227,-1.3231,-1.3242,-1.3247,-1.3249,-1.3257,-1.3265,-1.3258,-1.3257,-1.3257,-1.3264,-1.3264,-1.3265,-1.3265,0,0,-1.3036,-1.3071,-1.3072,-1.3084,-1.3109,-1.3119,-1.313,-1.3149,-1.3156,-1.3172,-1.3181,-1.3201,-1.3208,-1.3219,-1.3232,-1.3237,-1.3233,-1.3244,-1.3245,-1.3241,-1.3239,-1.3233,-1.3232,-1.3241,-1.3241,-1.3241,-1.3238,0,-1.3032,-1.3053,-1.3071,-1.3085,-1.3098,-1.3117,-1.3126,-1.3142,-1.3156,-1.3168,-1.3182,-1.3196,-1.3205,-1.3212,-1.3217,-1.3233,-1.3233,-1.3233,-1.3249,-1.3249,-1.3243,-1.3232,-1.3225,-1.3222,-1.3238,-1.3238,-1.3238,0,-1.303,-1.3047,-1.3062,-1.3086,-1.3092,-1.31,-1.3118,-1.313,-1.3148,-1.3158,-1.317,-1.3184,-1.3195,-1.3202,-1.3218,-1.3217,-1.3225,-1.3233,-1.3234,-1.3236,-1.3243,-1.3233,-1.3221,-1.322,-1.3238,-1.3238,-1.3238,0,-1.3013,-1.3039,-1.3051,-1.306,-1.3089,-1.3094,-1.3106,-1.3125,-1.3134,-1.315,-1.3156,-1.3173,-1.3182,-1.3194,-1.3211,-1.3215,-1.3225,-1.3234,-1.3233,-1.3232,-1.3234,-1.3234,-1.3222,-1.3239,-1.3239,-1.3239,-1.3239,0,-1.3007,-1.3015,-1.3044,-1.3051,-1.3061,-1.3082,-1.3091,-1.3105,-1.3121,-1.3131,-1.3149,-1.3157,-1.318,-1.3192,-1.3205,-1.3216,-1.322,-1.3228,-1.3231,-1.3226,-1.3225,-1.3231,-1.3231,-1.3239,-1.3239,-1.3239,-1.3239,0,-1.2989,-1.3008,-1.3023,-1.3049,-1.3056,-1.3062,-1.3084,-1.3091,-1.3106,-1.3119,-1.3123,-1.3145,-1.316,-1.3178,-1.3198,-1.3208,-1.3217,-1.3222,-1.3211,-1.3213,-1.3211,-1.3211,-1.3203,-1.3202,-1.322,-1.3219,-1.3219,0,-1.2983,-1.2991,-1.3017,-1.3025,-1.3037,-1.305,-1.306,-1.3081,-1.309,-1.3112,-1.3117,-1.3133,-1.3147,-1.3169,-1.3187,-1.3202,-1.3208,-1.3204,-1.321,-1.3205,-1.3207,-1.3207,-1.3207,-1.3202,-1.3202,-1.3202,-1.3202,0,-1.2971,-1.2981,-1.2995,-1.3013,-1.3024,-1.3039,-1.3054,-1.306,-1.3084,-1.3093,-1.3109,-1.3119,-1.314,-1.3156,-1.3173,-1.3185,-1.3197,-1.32,-1.32,-1.3195,-1.3188,-1.3191,-1.3206,-1.32,-1.32,-1.32,-1.32,-1.32,-1.296,-1.2967,-1.2986,-1.3002,-1.3015,-1.3029,-1.3038,-1.3054,-1.3067,-1.3086,-1.3097,-1.3112,-1.313,-1.3155,-1.3166,-1.3178,-1.3182,-1.3183,-1.3183,-1.3183,-1.3181,-1.3186,-1.3181,-1.3181,-1.3181,-1.3181,-1.3181,0,-1.2948,-1.2962,-1.2976,-1.2997,-1.3009,-1.302,-1.3037,-1.3046,-1.3059,-1.3075,-1.3088,-1.3106,-1.3121,-1.314,-1.3156,-1.3161,-1.3167,-1.3165,-1.3164,-1.3167,-1.3176,-1.3174,-1.316,-1.316,-1.316,-1.316,-1.316,-1.316,-1.2944,-1.2956,-1.2968,-1.2987,-1.3001,-1.3016,-1.3025,-1.3037,-1.305,-1.3069,-1.3082,-1.3094,-1.3111,-1.3129,-1.3143,-1.3148,-1.3153,-1.3149,-1.3155,-1.3164,-1.3166,-1.3168,-1.3166,-1.315,-1.315,-1.3145,-1.3145,-1.3145]},{"header":{"parameterUnit":"m.s-1","parameterCategory":1,"la1":30.2991,"la2":30.254,"lo1":-89.0895,"lo2":-89.0444,"dy":0.0017,"dx":0.0017,"nx":28,"ny":28,"refTime":"2025-03-13T03:00:00:Z","depth":0,"parameterNumber":3,"parameterNumberName":"V-component_of_WINDS"},"data":[0,0,0,0,0,0,0,0,0,0,0,0,0,0,0,0,0,0,0,0,0,0,0,0,0,0,0,0,0,0,0,0,0,0,0,0,0,0,0,0,0,0,0,0,0,0,0,0,0,0,0,0,0,0,0,0,0,0,2.9725,2.9727,0,2.9892,2.9894,2.9896,2.9936,2.9935,2.9934,2.9933,3.01,3.0105,3.0111,0,0,0,0,0,0,0,0,0,0,0,0,0,2.944,2.9445,2.9725,2.9727,2.9729,2.9891,2.9894,2.9896,2.9936,2.9935,2.9934,2.9932,3.0098,3.0104,3.0111,0,0,0,0,0,0,0,0,0,0,0,0,0,2.9581,2.9447,2.9725,2.9769,2.9775,2.9891,2.9894,2.9897,2.9936,2.9935,2.9933,2.9932,3.0096,3.0104,3.0112,3.0195,0,0,3.0137,3.0141,0,0,0,0,0,0,0,0,2.9573,2.9591,2.976,2.9766,2.9773,2.9892,2.9855,2.9997,2.9937,2.9875,2.9933,2.9931,3.0032,3.0045,3.008,3.0203,3.021,3.0138,3.0143,3.0146,3.0148,0,0,0,0,0,0,0,2.9563,2.9584,2.9791,2.9763,2.977,2.978,2.9798,2.9882,2.996,2.988,2.9884,2.9903,3.0035,3.0072,3.0084,3.0213,3.0137,3.0145,3.015,3.0153,3.0415,3.0417,0,0,0,0,0,0,2.9546,2.9576,2.9786,2.9796,2.9667,2.9786,2.9807,2.9855,2.996,2.9974,2.9904,2.9904,3.0059,3.0074,3.009,3.0197,3.0146,3.0154,3.0159,3.0413,3.0416,3.0418,0,0,0,0,0,0,2.954,2.9564,2.9779,2.9687,2.9715,2.9793,2.9847,2.9859,2.9896,2.9978,2.9992,2.9928,3.0058,3.0078,3.017,3.0203,3.0157,3.0165,3.0411,3.0414,3.0417,3.0409,0,0,0,0,0,0,2.9531,2.9562,2.9595,2.9688,2.972,2.9856,2.9849,2.9864,2.9911,2.9912,3.0004,3.0017,3.0058,3.0157,3.0178,3.0213,3.0171,3.0408,3.0412,3.0416,3.0407,3.0411,3.0415,0,0,0,0,0,2.9521,2.9584,2.9596,2.9621,2.9763,2.9858,2.9877,2.9924,2.9913,2.9947,2.9999,3.0014,3.0195,3.0166,3.019,3.0228,3.0406,3.0411,3.0415,3.0405,3.041,3.0415,0,0,0,0,0,0,2.9492,2.9597,2.9611,2.9707,2.9774,2.9865,2.9909,2.9928,2.9998,2.9997,3.0051,3.0071,3.0159,3.0202,3.0168,3.0315,3.0301,3.031,3.0284,3.0291,3.0295,3.0283,3.0178,0,0,0,0,0,2.9497,2.9566,2.9654,2.973,2.9763,2.983,2.9873,2.9904,2.9975,3.0003,3.0062,3.0129,3.0202,3.0248,3.0319,3.0412,3.0434,3.0451,3.0455,3.0458,3.0466,3.0521,3.0531,3.0433,3.0433,3.0433,0,0,2.9507,2.9573,2.9614,2.9726,2.9781,2.9852,2.9853,2.9927,2.9981,3.0014,3.0105,3.015,3.0229,3.0322,3.0366,3.0361,3.0498,3.0464,3.0466,3.0473,3.0527,3.0536,3.0544,3.0436,3.0436,3.0435,0,0,2.9563,2.9619,2.969,2.9746,2.983,2.9875,2.9891,2.9981,3.0013,3.0105,3.0132,3.0195,3.0318,3.0374,3.0419,3.0497,3.0514,3.0519,3.0542,3.0595,3.0603,3.061,3.064,3.065,3.0526,3.0526,3.0526,0,2.9565,2.9674,2.9723,2.9798,2.9847,2.9881,2.9954,3.0005,3.0107,3.014,3.0133,3.029,3.0345,3.0454,3.0473,3.0507,3.0529,3.0509,3.0598,3.0606,3.0613,3.0643,3.0654,3.0526,3.0526,3.0526,3.0526,0,2.9674,2.9748,2.9795,2.9896,2.995,3.0022,3.0083,3.0132,3.0158,3.0203,3.0297,3.0365,3.0451,3.0479,3.0504,3.0591,3.0586,3.0587,3.0574,3.0622,3.0651,3.0662,3.0526,3.0526,3.0526,3.0526,0,0,2.9716,2.9844,2.9861,2.9908,3.0004,3.0062,3.0137,3.0223,3.0265,3.0334,3.0398,3.0503,3.0506,3.0556,3.0588,3.0634,3.0695,3.0631,3.0634,3.0643,3.0798,3.0798,3.081,3.0706,3.0709,3.0711,3.0792,0,2.9786,2.9921,2.9969,3.0081,3.0151,3.0186,3.0251,3.0316,3.0361,3.0427,3.0475,3.0549,3.0546,3.0578,3.0625,3.0678,3.0728,3.0672,3.0768,3.0771,3.0749,3.0825,3.0824,3.0898,3.0804,3.0806,3.0807,0,2.9885,2.9958,3.0078,3.0167,3.0199,3.0256,3.034,3.0403,3.0478,3.0507,3.0564,3.0594,3.0673,3.0654,3.0764,3.0726,3.0767,3.0799,3.0803,3.0816,3.0793,3.0841,3.0923,3.0935,3.0825,3.0823,3.0822,0,2.9907,3.0035,3.0124,3.0163,3.0268,3.0309,3.0354,3.0428,3.0478,3.055,3.0583,3.0663,3.0708,3.0769,3.0819,3.08,3.0926,3.091,3.0953,3.0952,3.098,3.0978,3.1071,3.1003,3.1003,3.1002,3.1002,0,2.9982,3.0054,3.0136,3.0191,3.0273,3.0326,3.0406,3.0454,3.052,3.0584,3.0617,3.0677,3.0739,3.0807,3.0846,3.0933,3.0952,3.0978,3.0988,3.0977,3.0974,3.1006,3.1003,3.1005,3.1005,3.1004,3.1004,0,3.0021,3.0079,3.0178,3.027,3.0295,3.0352,3.0431,3.0486,3.0531,3.0613,3.0635,3.0707,3.0789,3.0845,3.0949,3.0975,3.1071,3.1078,3.1046,3.1051,3.1092,3.1088,3.1212,3.1232,3.1147,3.1148,3.1148,0,3.0066,3.0123,3.0222,3.0268,3.0314,3.0388,3.0439,3.0494,3.0546,3.0637,3.0681,3.0765,3.0836,3.0965,3.1027,3.1107,3.1118,3.1156,3.1131,3.1118,3.1122,3.1119,3.1126,3.116,3.1161,3.1162,3.1162,0,3.014,3.0166,3.0239,3.0323,3.0383,3.0451,3.0519,3.0555,3.0622,3.0678,3.0763,3.0818,3.0926,3.101,3.1096,3.1143,3.1165,3.1169,3.1184,3.1174,3.1154,3.1168,3.1059,3.1167,3.1166,3.1166,3.1166,3.1165,3.0185,3.0238,3.0317,3.0398,3.0455,3.0518,3.0575,3.0629,3.0701,3.0794,3.0821,3.091,3.0985,3.1104,3.1152,3.1223,3.1219,3.124,3.1246,3.1251,3.1252,3.1141,3.1238,3.1238,3.1238,3.1238,3.1238,0,3.0263,3.0316,3.0389,3.0485,3.0549,3.0563,3.064,3.0692,3.0771,3.084,3.0909,3.1008,3.109,3.1158,3.1242,3.1286,3.1298,3.1306,3.1305,3.1316,3.1249,3.1229,3.1295,3.1295,3.1295,3.1295,3.1295,3.1295,3.0312,3.0403,3.0438,3.0559,3.0611,3.0699,3.0742,3.0801,3.0857,3.0966,3.1035,3.1079,3.1148,3.1238,3.1314,3.1332,3.1363,3.137,3.139,3.1326,3.132,3.1314,3.1296,3.1375,3.1375,3.1451,3.1452,3.1453]}]]